• In Hungary
  • List of Countries
  • For 7 days
  • Water Temperature
  • Satellite Maps
  • Weather Map
  • News
  • Weather Widgets
  • user-avatar
    Login

    Hourly Weather Goslar

    Today, 16 August, Thursday

    Time Temperature Precipitation Wind Pressure Humidity
    00:00 +16°C° 0 mm 1 mps 737 mmHg 80%
    01:00 +15°C° 0 mm 1 mps 737 mmHg 81%
    02:00 +15°C° 0 mm 1 mps 737 mmHg 82%
    03:00 +15°C° 0 mm 1 mps 736 mmHg 83%
    04:00 +15°C° 0 mm 2 mps 736 mmHg 84%
    05:00 +16°C° 0 mm 2 mps 736 mmHg 80%
    06:00 +17°C° 0 mm 2 mps 736 mmHg 76%
    07:00 +18°C° 0 mm 2 mps 736 mmHg 70%
    08:00 +20°C° 0 mm 2 mps 736 mmHg 64%
    09:00 +22°C° 0 mm 3 mps 736 mmHg 58%
    10:00 +25°C° 0 mm 3 mps 736 mmHg 51%
    11:00 +26°C° 0 mm 3 mps 736 mmHg 48%
    12:00 +27°C° 0 mm 3 mps 735 mmHg 45%
    13:00 +28°C° 0 mm 3 mps 735 mmHg 42%
    14:00 +28°C° 0 mm 3 mps 735 mmHg 41%
    15:00 +29°C° 0 mm 3 mps 734 mmHg 41%
    16:00 +29°C° 0 mm 3 mps 734 mmHg 40%
    17:00 +28°C° 0 mm 2 mps 734 mmHg 45%
    18:00 +26°C° 0 mm 2 mps 734 mmHg 50%
    19:00 +25°C° 0 mm 1 mps 733 mmHg 55%
    20:00 +24°C° 0 mm 1 mps 734 mmHg 58%
    21:00 +22°C° 0 mm 1 mps 734 mmHg 61%
    22:00 +21°C° 0 mm 1 mps 734 mmHg 65%
    23:00 +20°C° 0 mm 1 mps 734 mmHg 66%

    Tomorrow, 17 August, Friday

    Time Temperature Precipitation Wind Pressure Humidity
    00:00 +20°C° 0 mm 1 mps 734 mmHg 68%
    01:00 +17°C° 0 mm 0 mps 734 mmHg 70%
    02:00 +19°C° 0 mm 1 mps 733 mmHg 72%
    03:00 +19°C° 0 mm 1 mps 733 mmHg 74%
    04:00 +18°C° 0 mm 1 mps 733 mmHg 75%
    05:00 +19°C° 0 mm 1 mps 734 mmHg 74%
    06:00 +20°C° 0 mm 1 mps 734 mmHg 72%
    07:00 +21°C° 0 mm 1 mps 734 mmHg 70%
    08:00 +21°C° 0 mm 2 mps 734 mmHg 65%
    09:00 +24°C° 0 mm 2 mps 734 mmHg 61%
    10:00 +25°C° 0 mm 2 mps 735 mmHg 56%
    11:00 +26°C° 0.2 mm 2 mps 735 mmHg 53%
    12:00 +27°C° 0.2 mm 2 mps 735 mmHg 51%
    13:00 +28°C° 0.2 mm 3 mps 735 mmHg 49%
    14:00 +27°C° 0.2 mm 3 mps 735 mmHg 52%
    15:00 +26°C° 0.2 mm 4 mps 735 mmHg 55%
    16:00 +26°C° 0.2 mm 4 mps 735 mmHg 58%
    17:00 +23°C° 0.2 mm 4 mps 735 mmHg 64%
    18:00 +22°C° 0.2 mm 4 mps 735 mmHg 69%
    19:00 +20°C° 0.2 mm 3 mps 735 mmHg 75%
    20:00 +19°C° 0 mm 3 mps 735 mmHg 77%
    21:00 +18°C° 0 mm 3 mps 736 mmHg 79%
    22:00 +17°C° 0 mm 2 mps 736 mmHg 82%
    23:00 +16°C° 0 mm 2 mps 736 mmHg 82%

    Day after tomorrow, 18 August, Saturday

    Time Temperature Precipitation Wind Pressure Humidity
    00:00 +16°C° 0 mm 2 mps 737 mmHg 83%
    01:00 +15°C° 0 mm 1 mps 737 mmHg 83%
    02:00 +15°C° 0 mm 1 mps 737 mmHg 83%
    03:00 +14°C° 0 mm 1 mps 737 mmHg 83%
    04:00 +14°C° 0 mm 1 mps 737 mmHg 82%
    05:00 +15°C° 0 mm 1 mps 738 mmHg 79%
    06:00 +15°C° 0 mm 1 mps 738 mmHg 76%
    07:00 +16°C° 0 mm 1 mps 738 mmHg 72%
    08:00 +19°C° 0 mm 1 mps 738 mmHg 65%
    09:00 +21°C° 0 mm 1 mps 739 mmHg 58%
    10:00 +21°C° 0 mm 2 mps 739 mmHg 50%
    11:00 +23°C° 0 mm 2 mps 739 mmHg 47%
    12:00 +24°C° 0 mm 2 mps 739 mmHg 43%
    13:00 +25°C° 0 mm 2 mps 738 mmHg 40%
    14:00 +25°C° 0 mm 3 mps 738 mmHg 39%
    15:00 +26°C° 0 mm 3 mps 738 mmHg 38%
    16:00 +26°C° 0 mm 3 mps 738 mmHg 37%
    17:00 +24°C° 0 mm 2 mps 738 mmHg 42%
    18:00 +23°C° 0 mm 2 mps 738 mmHg 47%
    19:00 +21°C° 0 mm 2 mps 738 mmHg 52%
    20:00 +19°C° 0 mm 2 mps 738 mmHg 54%
    21:00 +18°C° 0 mm 2 mps 739 mmHg 57%
    22:00 +18°C° 0 mm 1 mps 739 mmHg 59%
    23:00 +18°C° 0 mm 1 mps 739 mmHg 61%

    19 August, Sunday

    Time Temperature Precipitation Wind Pressure Humidity
    00:00 +16°C° 0 mm 1 mps 739 mmHg 63%
    01:00 +16°C° 0 mm 1 mps 739 mmHg 65%
    02:00 +16°C° 0 mm 1 mps 739 mmHg 68%
    03:00 +15°C° 0 mm 1 mps 739 mmHg 71%
    04:00 +15°C° 0 mm 1 mps 739 mmHg 74%
    05:00 +16°C° 0 mm 1 mps 739 mmHg 73%
    06:00 +18°C° 0 mm 1 mps 739 mmHg 72%
    07:00 +18°C° 0 mm 1 mps 740 mmHg 71%
    08:00 +20°C° 0 mm 1 mps 740 mmHg 66%
    09:00 +22°C° 0 mm 1 mps 740 mmHg 61%
    10:00 +24°C° 0 mm 2 mps 740 mmHg 56%
    11:00 +24°C° 0 mm 2 mps 740 mmHg 52%
    12:00 +25°C° 0 mm 2 mps 739 mmHg 49%
    13:00 +26°C° 0 mm 2 mps 739 mmHg 45%
    14:00 +27°C° 0 mm 2 mps 739 mmHg 44%
    15:00 +27°C° 0 mm 2 mps 738 mmHg 44%
    16:00 +27°C° 0 mm 2 mps 738 mmHg 43%
    17:00 +26°C° 0 mm 2 mps 738 mmHg 47%
    18:00 +25°C° 0 mm 1 mps 738 mmHg 52%
    19:00 +24°C° 0 mm 1 mps 737 mmHg 57%
    20:00 +23°C° 0 mm 1 mps 737 mmHg 59%
    21:00 +22°C° 0 mm 1 mps 737 mmHg 62%
    22:00 +21°C° 0 mm 1 mps 737 mmHg 64%
    23:00 +20°C° 0 mm 1 mps 737 mmHg 65%

    20 August, Monday

    Time Temperature Precipitation Wind Pressure Humidity
    00:00 +19°C° 0 mm 2 mps 737 mmHg 66%
    01:00 +18°C° 0 mm 2 mps 737 mmHg 68%
    02:00 +18°C° 0 mm 2 mps 737 mmHg 70%
    03:00 +17°C° 0 mm 2 mps 736 mmHg 73%
    04:00 +17°C° 0 mm 2 mps 736 mmHg 76%
    05:00 +18°C° 0 mm 2 mps 736 mmHg 75%
    06:00 +18°C° 0 mm 2 mps 736 mmHg 74%
    07:00 +19°C° 0 mm 2 mps 736 mmHg 73%
    08:00 +21°C° 0 mm 3 mps 737 mmHg 67%
    09:00 +22°C° 0 mm 4 mps 737 mmHg 62%
    10:00 +25°C° 0 mm 4 mps 737 mmHg 57%
    11:00 +25°C° 0 mm 4 mps 737 mmHg 57%
    12:00 +25°C° 0 mm 5 mps 736 mmHg 57%
    13:00 +25°C° 0 mm 5 mps 736 mmHg 58%
    14:00 +25°C° 0 mm 5 mps 736 mmHg 57%
    15:00 +25°C° 0 mm 5 mps 736 mmHg 57%
    16:00 +25°C° 0 mm 5 mps 736 mmHg 57%
    17:00 +23°C° 0 mm 4 mps 736 mmHg 62%
    18:00 +22°C° 0 mm 3 mps 736 mmHg 67%
    19:00 +21°C° 0 mm 3 mps 736 mmHg 72%
    20:00 +20°C° 0 mm 2 mps 736 mmHg 77%
    21:00 +19°C° 0 mm 2 mps 737 mmHg 83%
    22:00 +18°C° 0 mm 2 mps 737 mmHg 88%
    23:00 +17°C° 0 mm 2 mps 737 mmHg 90%

    21 August, Tuesday

    Time Temperature Precipitation Wind Pressure Humidity
    00:00 +17°C° 0 mm 2 mps 737 mmHg 92%
    01:00 +16°C° 0 mm 2 mps 737 mmHg 93%
    02:00 +16°C° 0 mm 2 mps 737 mmHg 93%
    03:00 +16°C° 0 mm 2 mps 736 mmHg 94%
    04:00 +16°C° 0 mm 2 mps 736 mmHg 94%
    05:00 +17°C° 0 mm 2 mps 737 mmHg 91%
    06:00 +17°C° 0 mm 2 mps 737 mmHg 87%
    07:00 +18°C° 0 mm 2 mps 737 mmHg 84%
    08:00 +20°C° 0 mm 2 mps 737 mmHg 76%
    09:00 +22°C° 0 mm 3 mps 737 mmHg 68%
    10:00 +25°C° 0 mm 3 mps 737 mmHg 60%
    11:00 +25°C° 0 mm 3 mps 736 mmHg 57%
    12:00 +26°C° 0 mm 3 mps 736 mmHg 54%
    13:00 +27°C° 0 mm 3 mps 736 mmHg 51%
    14:00 +27°C° 0.1 mm 3 mps 736 mmHg 51%
    15:00 +27°C° 0.1 mm 3 mps 735 mmHg 51%
    16:00 +27°C° 0.1 mm 3 mps 735 mmHg 51%
    17:00 +26°C° 0.1 mm 3 mps 735 mmHg 56%
    18:00 +25°C° 0.1 mm 2 mps 734 mmHg 62%
    19:00 +24°C° 0.1 mm 2 mps 734 mmHg 67%
    20:00 +21°C° 0.6 mm 2 mps 734 mmHg 73%
    21:00 +21°C° 0.6 mm 1 mps 734 mmHg 78%
    22:00 +20°C° 0.6 mm 1 mps 734 mmHg 84%
    23:00 +19°C° 0.2 mm 2 mps 734 mmHg 87%
    Show more